ESNL

Details ICAO ESNL (LYC)
Name LYCKSELE
Region Sweden
Timezone Europe/Stockholm (UTC+2.0)
Plans Departing 10
Arriving 2
Stats Elevation 705 ft / 215 m (AMSL)
Location 64.549570° 18.714026°
Runways 1
Magnetic Variation 7.495° E
Sunrise 2018-05-26 00:51:59 UTC / 2018-05-26 02:51:59 Local
Sunset 2018-05-26 20:35:15 UTC / 2018-05-26 22:35:15 Local
Advertisement - Login to hide

Runways

ID Width Length Bearing (true) Bearing (mag) Surface Threshold Offset Overrun Length
14 98 ft / 30 m 6,546 ft / 1,995 m 142.97° 135.48° Asphalt 493 ft / 150 m 0 ft / 0 m
32 98 ft / 30 m 6,546 ft / 1,995 m 323.00° 315.51° Asphalt 0 ft / 0 m 0 ft / 0 m

Approach Navaids

Runway Type Ident Frequency Range Bearing (true) Bearing (mag) Slope Elevation
14 Localiser WL 108.70 MHz 18 nm / 33 km 142.97° 135.48° - 705 ft / 215 m (AMSL)
14 Glidescope WL 108.70 MHz 10 nm / 19 km 142.98° 135.49° 3.50° 705 ft / 215 m (AMSL)
32 Localiser NL 110.50 MHz 18 nm / 33 km 322.97° 315.48° - 705 ft / 215 m (AMSL)
32 DME NL 110.50 MHz 18 nm / 33 km - - - 705 ft / 215 m (AMSL)

Map

Weather


0- 5 10 15 20 25 30 35+ Temperature / ° C

Clouds and Precipitation
Forecast for 2018-05-25 18:00 UTC. Updated 5 hours ago

Ground ~20,000 ft ~40,000 ft Winds

METAR

ESNL 252220Z AUTO 29004KT 9999 FEW095/// SCT100/// 11/M01 Q1027

TAF

Not found

Frequencies

Tower 122.22 MHz AFIS
Warning: Do not use this data for real-world aviation or navigation. No guarantee of current accuracy is given.